[[{"header":{"parameterUnit":"m.s-1","parameterCategory":1,"la1":30.2991,"la2":30.254,"lo1":-89.0895,"lo2":-89.0444,"dy":0.0017,"dx":0.0017,"nx":28,"ny":28,"refTime":"2025-01-15T03:00:00:Z","depth":0,"parameterNumber":2,"parameterNumberName":"U-component_of_WINDS"},"data":[0,0,0,0,0,0,0,0,0,0,0,0,0,0,0,0,0,0,0,0,0,0,0,0,0,0,0,0,0,0,0,0,0,0,0,0,0,0,0,0,0,0,0,0,0,0,0,0,0,0,0,0,0,0,0,0,0,0,-1.166,-1.166,0,-1.1675,-1.1675,-1.1676,-1.1567,-1.1564,-1.1561,-1.1558,-1.1577,-1.1581,-1.1584,0,0,0,0,0,0,0,0,0,0,0,0,0,-1.1541,-1.1544,-1.166,-1.166,-1.1661,-1.1675,-1.1675,-1.1676,-1.1567,-1.1564,-1.156,-1.1557,-1.1576,-1.158,-1.1584,0,0,0,0,0,0,0,0,0,0,0,0,0,-1.1579,-1.1545,-1.166,-1.1608,-1.1604,-1.1675,-1.1675,-1.1676,-1.1568,-1.1564,-1.1559,-1.1555,-1.1575,-1.158,-1.1585,-1.1708,0,0,-1.16,-1.1602,0,0,0,0,0,0,0,0,-1.1577,-1.1583,-1.1616,-1.1612,-1.1607,-1.1614,-1.164,-1.1687,-1.1569,-1.1582,-1.1558,-1.1552,-1.1594,-1.1597,-1.161,-1.1709,-1.171,-1.1601,-1.1604,-1.1606,-1.1607,0,0,0,0,0,0,0,-1.1574,-1.1582,-1.1666,-1.1616,-1.1611,-1.1585,-1.1586,-1.1649,-1.1614,-1.158,-1.1573,-1.1576,-1.159,-1.1605,-1.161,-1.171,-1.16,-1.1605,-1.1608,-1.161,-1.1912,-1.1917,0,0,0,0,0,0,-1.1578,-1.158,-1.1666,-1.1667,-1.158,-1.1591,-1.1591,-1.1617,-1.1612,-1.1607,-1.158,-1.1571,-1.1599,-1.1604,-1.161,-1.1755,-1.1606,-1.1611,-1.1613,-1.1907,-1.1913,-1.1919,0,0,0,0,0,0,-1.1576,-1.1587,-1.1665,-1.1621,-1.1629,-1.1598,-1.1628,-1.162,-1.1634,-1.1612,-1.1605,-1.1601,-1.1595,-1.1603,-1.1684,-1.1754,-1.1613,-1.1617,-1.1901,-1.1909,-1.1916,-1.2046,0,0,0,0,0,0,-1.1573,-1.1587,-1.1632,-1.1623,-1.1632,-1.1739,-1.1632,-1.1623,-1.1643,-1.1631,-1.163,-1.1626,-1.1592,-1.1677,-1.1689,-1.1759,-1.1621,-1.1895,-1.1905,-1.1914,-1.2036,-1.2057,-1.2076,0,0,0,0,0,-1.1569,-1.1669,-1.1635,-1.1646,-1.1689,-1.1743,-1.1748,-1.1707,-1.1649,-1.1695,-1.1681,-1.1626,-1.1744,-1.1687,-1.1699,-1.1771,-1.189,-1.1902,-1.1913,-1.2027,-1.2053,-1.2076,0,0,0,0,0,0,-1.1689,-1.1667,-1.1629,-1.1729,-1.1739,-1.1725,-1.1782,-1.1736,-1.1764,-1.1752,-1.17,-1.1701,-1.1792,-1.1789,-1.1725,-1.1891,-1.1807,-1.1822,-1.189,-1.1915,-1.1934,-1.1934,-1.1626,0,0,0,0,0,-1.1726,-1.1771,-1.175,-1.184,-1.1847,-1.1814,-1.1836,-1.1803,-1.1812,-1.1816,-1.1807,-1.1819,-1.1858,-1.1886,-1.1921,-1.2034,-1.2033,-1.209,-1.211,-1.2126,-1.214,-1.2202,-1.2227,-1.1956,-1.1955,-1.1955,0,0,-1.1805,-1.1799,-1.1831,-1.1864,-1.1868,-1.1917,-1.1818,-1.1874,-1.1911,-1.1824,-1.1901,-1.1896,-1.1905,-1.2003,-1.2046,-1.2004,-1.2215,-1.2141,-1.2154,-1.2159,-1.2216,-1.2241,-1.2264,-1.1963,-1.1962,-1.1961,0,0,-1.1975,-1.1973,-1.2049,-1.2054,-1.2061,-1.2038,-1.2056,-1.2049,-1.2042,-1.2118,-1.2054,-1.2097,-1.2166,-1.2176,-1.219,-1.2363,-1.2315,-1.2376,-1.2482,-1.2543,-1.2564,-1.2583,-1.2647,-1.267,-1.2389,-1.239,-1.239,0,-1.2073,-1.2143,-1.2094,-1.2155,-1.2172,-1.2094,-1.2172,-1.2179,-1.2198,-1.2212,-1.2164,-1.225,-1.225,-1.2351,-1.2393,-1.2406,-1.2427,-1.2377,-1.2565,-1.2583,-1.26,-1.266,-1.2684,-1.2397,-1.2396,-1.2396,-1.2395,0,-1.2264,-1.2314,-1.2374,-1.2393,-1.2417,-1.2485,-1.2448,-1.2478,-1.2443,-1.2426,-1.2505,-1.2503,-1.2537,-1.2558,-1.2524,-1.2654,-1.2628,-1.2573,-1.2489,-1.2634,-1.269,-1.2713,-1.2408,-1.2406,-1.2403,-1.2401,0,0,-1.2511,-1.2501,-1.2524,-1.2532,-1.2533,-1.2572,-1.2637,-1.2669,-1.2697,-1.2712,-1.2767,-1.2827,-1.2776,-1.2792,-1.2759,-1.2812,-1.2951,-1.275,-1.2749,-1.279,-1.3097,-1.314,-1.3167,-1.2918,-1.2922,-1.2925,-1.3097,0,-1.2678,-1.2788,-1.2746,-1.2861,-1.2907,-1.2834,-1.2891,-1.2899,-1.2885,-1.2923,-1.2907,-1.2951,-1.288,-1.2889,-1.2938,-1.2924,-1.3013,-1.2911,-1.2971,-1.2974,-1.2973,-1.3196,-1.3242,-1.3404,-1.3118,-1.3122,-1.3124,0,-1.2888,-1.2911,-1.303,-1.3023,-1.3041,-1.3093,-1.312,-1.3157,-1.3164,-1.315,-1.3168,-1.3124,-1.3189,-1.3103,-1.3193,-1.3125,-1.3146,-1.3143,-1.3148,-1.3155,-1.306,-1.3211,-1.3454,-1.348,-1.3158,-1.3155,-1.3153,0,-1.3059,-1.3119,-1.3198,-1.3207,-1.3201,-1.324,-1.3239,-1.3242,-1.3264,-1.3288,-1.3302,-1.3333,-1.3351,-1.3377,-1.3342,-1.3282,-1.3439,-1.3349,-1.3431,-1.3432,-1.3469,-1.3468,-1.3722,-1.3479,-1.3479,-1.3478,-1.3478,0,-1.3252,-1.3328,-1.3275,-1.3325,-1.3408,-1.3359,-1.3444,-1.3435,-1.3438,-1.3486,-1.3423,-1.347,-1.342,-1.3462,-1.3435,-1.3515,-1.3523,-1.3515,-1.3507,-1.3522,-1.3524,-1.3538,-1.3526,-1.3485,-1.3483,-1.3482,-1.3481,0,-1.3458,-1.3426,-1.3508,-1.3495,-1.3493,-1.3556,-1.3545,-1.3591,-1.3571,-1.3632,-1.3644,-1.3614,-1.366,-1.3627,-1.3673,-1.3655,-1.3761,-1.3737,-1.3759,-1.3753,-1.3838,-1.3831,-1.4112,-1.4148,-1.388,-1.3882,-1.3884,0,-1.3584,-1.3641,-1.3634,-1.3661,-1.3664,-1.3708,-1.373,-1.3684,-1.371,-1.3723,-1.3768,-1.3808,-1.3838,-1.3915,-1.3898,-1.3933,-1.3911,-1.4007,-1.3916,-1.3929,-1.3915,-1.3913,-1.392,-1.4026,-1.4029,-1.4032,-1.4034,0,-1.3813,-1.3794,-1.3827,-1.3856,-1.3884,-1.3905,-1.3921,-1.3946,-1.3899,-1.3932,-1.3978,-1.4001,-1.4047,-1.4089,-1.4118,-1.4118,-1.407,-1.4062,-1.4084,-1.41,-1.4112,-1.4109,-1.3812,-1.4057,-1.4055,-1.4053,-1.4052,-1.4051,-1.3984,-1.4032,-1.4035,-1.4075,-1.4081,-1.4098,-1.414,-1.4126,-1.4163,-1.4196,-1.4167,-1.4222,-1.4229,-1.4262,-1.4269,-1.4313,-1.4274,-1.4304,-1.4312,-1.4321,-1.4334,-1.4103,-1.4317,-1.4317,-1.4316,-1.4316,-1.4315,0,-1.4212,-1.4209,-1.4247,-1.427,-1.4302,-1.4251,-1.4266,-1.4297,-1.4346,-1.4355,-1.4386,-1.4439,-1.4479,-1.4465,-1.4501,-1.4539,-1.4518,-1.455,-1.4549,-1.455,-1.4366,-1.4345,-1.4567,-1.4567,-1.4567,-1.4567,-1.4567,-1.4567,-1.4334,-1.4412,-1.4394,-1.4476,-1.4473,-1.4526,-1.4539,-1.4554,-1.4562,-1.4624,-1.4656,-1.4646,-1.4647,-1.4682,-1.4718,-1.4712,-1.473,-1.4771,-1.4759,-1.4587,-1.4563,-1.4539,-1.4519,-1.4775,-1.4775,-1.4939,-1.4941,-1.4942]},{"header":{"parameterUnit":"m.s-1","parameterCategory":1,"la1":30.2991,"la2":30.254,"lo1":-89.0895,"lo2":-89.0444,"dy":0.0017,"dx":0.0017,"nx":28,"ny":28,"refTime":"2025-01-15T03:00:00:Z","depth":0,"parameterNumber":3,"parameterNumberName":"V-component_of_WINDS"},"data":[0,0,0,0,0,0,0,0,0,0,0,0,0,0,0,0,0,0,0,0,0,0,0,0,0,0,0,0,0,0,0,0,0,0,0,0,0,0,0,0,0,0,0,0,0,0,0,0,0,0,0,0,0,0,0,0,0,0,-1.8198,-1.8198,0,-1.8196,-1.8196,-1.8196,-1.8167,-1.8166,-1.8165,-1.8165,-1.8162,-1.8163,-1.8164,0,0,0,0,0,0,0,0,0,0,0,0,0,-1.8178,-1.8179,-1.8198,-1.8198,-1.8198,-1.8196,-1.8196,-1.8196,-1.8167,-1.8166,-1.8165,-1.8164,-1.8162,-1.8163,-1.8164,0,0,0,0,0,0,0,0,0,0,0,0,0,-1.8182,-1.8179,-1.8198,-1.8184,-1.8182,-1.8196,-1.8196,-1.8196,-1.8167,-1.8166,-1.8165,-1.8164,-1.8162,-1.8163,-1.8164,-1.8191,0,0,-1.8166,-1.8167,0,0,0,0,0,0,0,0,-1.8182,-1.8183,-1.8186,-1.8185,-1.8183,-1.818,-1.8188,-1.8194,-1.8168,-1.8173,-1.8165,-1.8164,-1.8169,-1.8169,-1.8171,-1.8191,-1.8191,-1.8167,-1.8167,-1.8167,-1.8168,0,0,0,0,0,0,0,-1.8182,-1.8183,-1.8197,-1.8186,-1.8184,-1.8177,-1.8177,-1.8189,-1.8177,-1.8172,-1.817,-1.817,-1.8168,-1.8171,-1.8171,-1.8191,-1.8167,-1.8167,-1.8168,-1.8168,-1.8232,-1.8233,0,0,0,0,0,0,-1.8184,-1.8183,-1.8197,-1.8197,-1.818,-1.8178,-1.8178,-1.8182,-1.8177,-1.8175,-1.8171,-1.8169,-1.817,-1.817,-1.8171,-1.8202,-1.8167,-1.8168,-1.8169,-1.8231,-1.8232,-1.8233,0,0,0,0,0,0,-1.8183,-1.8185,-1.8197,-1.819,-1.819,-1.818,-1.8185,-1.8183,-1.8185,-1.8176,-1.8174,-1.8176,-1.8169,-1.817,-1.8186,-1.8201,-1.8169,-1.817,-1.8229,-1.8231,-1.8233,-1.8264,0,0,0,0,0,0,-1.8183,-1.8185,-1.8196,-1.819,-1.8191,-1.8213,-1.8186,-1.8184,-1.8187,-1.8184,-1.818,-1.8178,-1.8168,-1.8185,-1.8187,-1.8202,-1.817,-1.8228,-1.823,-1.8232,-1.8262,-1.8267,-1.8271,0,0,0,0,0,-1.8182,-1.8205,-1.8196,-1.8198,-1.8204,-1.8214,-1.8214,-1.8202,-1.8188,-1.8198,-1.8192,-1.8178,-1.82,-1.8187,-1.8189,-1.8205,-1.8227,-1.8229,-1.8232,-1.826,-1.8266,-1.8271,0,0,0,0,0,0,-1.8213,-1.8204,-1.8194,-1.8216,-1.8216,-1.8209,-1.8221,-1.8209,-1.8213,-1.821,-1.8195,-1.8194,-1.8213,-1.821,-1.8196,-1.823,-1.8211,-1.8214,-1.8231,-1.8237,-1.8242,-1.8242,-1.8171,0,0,0,0,0,-1.8222,-1.8231,-1.8222,-1.8242,-1.8242,-1.8232,-1.8236,-1.8226,-1.8226,-1.8226,-1.8221,-1.8221,-1.8227,-1.8232,-1.8238,-1.8262,-1.826,-1.8273,-1.8278,-1.8282,-1.8285,-1.8297,-1.8302,-1.8242,-1.8242,-1.8241,0,0,-1.8241,-1.8237,-1.8244,-1.8248,-1.8247,-1.8256,-1.8232,-1.8243,-1.825,-1.8227,-1.8242,-1.8239,-1.8238,-1.8258,-1.8266,-1.8256,-1.8301,-1.8285,-1.8289,-1.8289,-1.83,-1.8306,-1.8311,-1.8243,-1.8243,-1.8243,0,0,-1.828,-1.8278,-1.8294,-1.8294,-1.8292,-1.8285,-1.8289,-1.8284,-1.828,-1.8295,-1.8279,-1.8286,-1.8298,-1.8298,-1.8299,-1.8338,-1.8325,-1.8341,-1.8365,-1.8377,-1.8382,-1.8386,-1.8399,-1.8404,-1.8344,-1.8344,-1.8344,0,-1.8304,-1.8317,-1.8304,-1.8316,-1.8318,-1.8298,-1.8314,-1.8314,-1.8315,-1.8317,-1.8305,-1.8319,-1.8317,-1.8337,-1.8346,-1.8348,-1.8352,-1.8341,-1.8382,-1.8386,-1.839,-1.8402,-1.8408,-1.8345,-1.8345,-1.8345,-1.8345,0,-1.8346,-1.8356,-1.8369,-1.8369,-1.8373,-1.8387,-1.8376,-1.8381,-1.8372,-1.8366,-1.8381,-1.8378,-1.8382,-1.8386,-1.8377,-1.8404,-1.8398,-1.8385,-1.8364,-1.8398,-1.8409,-1.8414,-1.8348,-1.8347,-1.8347,-1.8346,0,0,-1.8404,-1.8397,-1.8402,-1.8402,-1.8399,-1.8406,-1.8419,-1.8423,-1.8428,-1.8429,-1.8439,-1.845,-1.8437,-1.8439,-1.8429,-1.844,-1.847,-1.8425,-1.8425,-1.8433,-1.85,-1.8509,-1.8515,-1.8462,-1.8463,-1.8463,-1.85,0,-1.8442,-1.8463,-1.8451,-1.8474,-1.8482,-1.8464,-1.8475,-1.8474,-1.8469,-1.8475,-1.8469,-1.8477,-1.846,-1.8461,-1.847,-1.8465,-1.8483,-1.8462,-1.8471,-1.8471,-1.8471,-1.8521,-1.8531,-1.8566,-1.8504,-1.8505,-1.8505,0,-1.8488,-1.8491,-1.8514,-1.8509,-1.8512,-1.8522,-1.8525,-1.8531,-1.853,-1.8525,-1.8527,-1.8515,-1.8528,-1.8508,-1.8524,-1.851,-1.8513,-1.8511,-1.8512,-1.8512,-1.849,-1.8522,-1.8576,-1.8581,-1.8512,-1.8512,-1.8511,0,-1.8527,-1.8537,-1.8552,-1.8553,-1.8547,-1.8555,-1.8553,-1.855,-1.8553,-1.8556,-1.8558,-1.8562,-1.8564,-1.8567,-1.8557,-1.8544,-1.8574,-1.8554,-1.8571,-1.8571,-1.8577,-1.8577,-1.8633,-1.8581,-1.858,-1.858,-1.858,0,-1.857,-1.8585,-1.8569,-1.8579,-1.8595,-1.8582,-1.8598,-1.8594,-1.8592,-1.86,-1.8585,-1.8593,-1.8579,-1.8585,-1.8577,-1.8592,-1.8593,-1.8589,-1.8587,-1.859,-1.8591,-1.8592,-1.8589,-1.8582,-1.8581,-1.8581,-1.8581,0,-1.8616,-1.8606,-1.8622,-1.8615,-1.8614,-1.8626,-1.862,-1.8629,-1.8622,-1.8633,-1.8635,-1.8625,-1.8632,-1.8622,-1.8628,-1.8622,-1.8642,-1.8636,-1.8642,-1.864,-1.8657,-1.8656,-1.8715,-1.8722,-1.8666,-1.8667,-1.8667,0,-1.8643,-1.8654,-1.8649,-1.8653,-1.8652,-1.8659,-1.8662,-1.865,-1.8653,-1.8653,-1.8661,-1.8667,-1.867,-1.8682,-1.8676,-1.868,-1.8674,-1.8694,-1.8675,-1.8678,-1.8674,-1.8673,-1.8674,-1.8698,-1.8699,-1.87,-1.87,0,-1.8693,-1.8688,-1.8692,-1.8696,-1.87,-1.8702,-1.8702,-1.8707,-1.8693,-1.8699,-1.8705,-1.8708,-1.8714,-1.872,-1.8722,-1.872,-1.8708,-1.8706,-1.871,-1.8714,-1.8717,-1.8715,-1.8653,-1.8705,-1.8704,-1.8704,-1.8704,-1.8704,-1.873,-1.8739,-1.8736,-1.8742,-1.8741,-1.8742,-1.875,-1.8744,-1.875,-1.8753,-1.8746,-1.8754,-1.8752,-1.8755,-1.8754,-1.8761,-1.8752,-1.8758,-1.8759,-1.876,-1.8763,-1.8716,-1.8761,-1.8761,-1.8761,-1.8761,-1.8761,0,-1.8778,-1.8776,-1.8781,-1.8783,-1.8787,-1.8775,-1.8775,-1.878,-1.8788,-1.8787,-1.8791,-1.8799,-1.8804,-1.8798,-1.8802,-1.8808,-1.8803,-1.881,-1.8809,-1.8809,-1.8771,-1.8767,-1.8814,-1.8814,-1.8814,-1.8814,-1.8814,-1.8814,-1.8804,-1.8818,-1.8812,-1.8826,-1.8823,-1.8831,-1.8832,-1.8833,-1.8832,-1.8841,-1.8846,-1.8841,-1.8838,-1.8842,-1.8847,-1.8845,-1.8847,-1.8856,-1.8852,-1.8817,-1.8811,-1.8806,-1.8802,-1.8857,-1.8857,-1.8889,-1.8889,-1.8889]}]]